Location: Neuvy Saint Sepulchre
(46.5953°N, 1.8122°E)
Time: 09:35:45
(UTC+02:00)

ISS - Pass Details

Date: 14 July 2021
Orbit: 419 x 421 km, 51.6° (Epoch: 04 August)

Event Time Altitude Azimuth Distance (km) Brightness Sun altitude
Rises 05:18:45 0° 294° (WNW) 2,370 -0.2 -8.2°
Reaches altitude 10° 05:20:55 10° 286° (WNW) 1,503 -1.2 -7.9°
Maximum altitude 05:24:07 40° 216° (SW) 633 -3.3 -7.5°
Drops below altitude 10° 05:27:17 10° 145° (SE) 1,494 -1.0 -7.1°
Sets 05:29:26 0° 138° (SE) 2,354 0.1 -6.8°
